www.pogodaiklimat.ru

Погода и климат >> Архив погоды >> Пакистан >> Дера-Исмаил-Хан


ПОГОДА в Дера-Исмаил-Хане

  • Прогноз погоды в Дера-Исмаил-Хане
  • Монитор погоды в Дера-Исмаил-Хане

АРХИВ ПОГОДЫ в Дера-Исмаил-Хане

Время (UTC), дата Ветер
(напр.,м/с)
 
Видим.   Явления Облачность Т
(С)
Тd
(С)
f
(%)
Тe
(С)
Тes
(С)
Комфортность P
(гПа)
Po
(гПа)
Тmin
(С)
Tmax
(С)
R
(мм)
R24
(мм)
S
(см)
06 13.09 штиль 0 10 км ясно +35.5 +26.6 60 +52 +73 опасность
перегрева
1003.0 984.1
09 13.09 штиль 0 10 км ясно +39.0 +26.8 50 +55 +74 опасность
перегрева
1000.8 1000.0
12 13.09 штиль 0 10 км ясно +40.0 +26.4 47 +56 +59 опасность
перегрева
998.8 980.4 +41.0
15 13.09 штиль 0 4000 м ясно +35.0 +26.8 63 +53 +53 опасность
перегрева
999.5 1000.0
18 13.09 штиль 0 4000 м ясно +34.0 +26.5 65 +51 +51 опасность
перегрева
1000.6 981.8
21 13.09 штиль 0 4000 м ясно +32.5 +25.5 67 +47 +47 опасность
перегрева
1000.8 1000.0
00 14.09 СВ 1 4000 м ясно +29.0 +24.8 78 +41 +41 опасность
перегрева
1001.2 982.1
03 14.09 СВ 1 10 км ясно +29.0 +23.2 71 +39 +43 очень
душно
1003.5 984.3 +26.5
06 14.09 СВ 1 10 км 4/4 1110 м
[Sc]
+34.0 +24.1 56 +46 +56 опасность
перегрева
1004.9 986.0
09 14.09 СВ 1 10 км ясно +37.5 +25.8 51 +52 +69 опасность
перегрева
1002.4 1000.0
12 14.09 СВ 1 10 км ясно +38.5 +27.0 52 +56 +58 опасность
перегрева
1000.2 981.7 +39.0
15 14.09 штиль 0 4000 м ясно +35.0 +27.6 66 +55 +55 опасность
перегрева
1000.5 1000.0
18 14.09 штиль 0 4000 м ясно +34.0 +26.5 65 +51 +51 опасность
перегрева
1001.1 982.3
21 14.09 штиль 0 4000 м ясно +31.5 +25.2 69 +45 +45 опасность
перегрева
1001.6 1000.0
00 15.09 штиль 0 4000 м ясно +28.5 +23.5 74 +39 +39 очень
душно
1002.5 983.3
03 15.09 штиль 0 10 км ясно +29.0 +24.0 74 +40 +44 очень
душно
1004.7 985.5 +26.5
06 15.09 ЮВ 1 10 км ясно +36.0 +26.4 58 +53 +70 опасность
перегрева
1004.7 985.9
09 15.09 штиль 0 10 км ясно +39.0 +25.2 46 +52 +70 опасность
перегрева
1001.6 982.8
12 15.09 ЮВ 1 10 км ясно +39.0 +26.8 50 +55 +58 опасность
перегрева
999.3 980.9 +40.5
15 15.09 штиль 0 4000 м ясно +34.5 +26.3 62 +51 +51 опасность
перегрева
1000.3 1000.0
18 15.09 ЮВ 1 4000 м ясно +33.0 +25.3 64 +47 +47 опасность
перегрева
1001.2 982.2
21 15.09 СВ 1 4000 м ясно +31.0 +25.4 72 +45 +45 опасность
перегрева
1001.5 1000.0
00 16.09 СВ 1 4000 м ясно +29.0 +24.8 78 +41 +41 опасность
перегрева
1001.5 982.4
03 16.09 СВ 1 10 км ясно +28.5 +25.0 81 +41 +45 опасность
перегрева
1001.4 982.2 +26.5
06 16.09 штиль 0 10 км ясно +37.0 +26.0 53 +52 +72 опасность
перегрева
1002.4 983.7
09 16.09 ЮВ 1 10 км ясно +39.0 +26.8 50 +55 +72 опасность
перегрева
999.6 1000.0
12 16.09 ЮВ 1 10 км ясно +39.0 +26.8 50 +55 +58 опасность
перегрева
996.9 978.6 +42.1
15 16.09 штиль 0 10 км ясно +33.0 +24.6 61 +46 +46 опасность
перегрева
998.6 979.8
18 16.09 штиль 0 10 км ясно +30.0 +24.3 72 +42 +42 опасность
перегрева
1000.3 981.4
21 16.09 штиль 0 4000 м ясно +28.0 +25.7 87 +41 +41 опасность
перегрева
998.9 979.9
00 17.09 СВ 1 4000 м ясно +27.0 +22.6 77 +36 +36 очень
душно
1000.4 981.3
03 17.09 СВ 1 10 км ясно +28.0 +25.2 85 +41 +45 опасность
перегрева
1003.0 983.8 +26.1
06 17.09 СВ 1 10 км ясно +34.0 +27.2 68 +53 +70 опасность
перегрева
1003.8 985.0
09 17.09 СВ 1 10 км ясно +37.0 +27.6 59 +56 +73 опасность
перегрева
1001.9 983.3
12 17.09 штиль 0 10 км ясно +37.0 +26.0 53 +52 +54 опасность
перегрева
1000.0 981.5 +41.0
15 17.09 ЮВ 1 4000 м ясно +32.0 +23.4 60 +43 +43 опасность
перегрева
1001.9 982.9
18 17.09 СВ 1 4000 м дым 4/4 1110 м
[Sc As op]
+30.0 +23.5 68 +41 +41 опасность
перегрева
1004.0 984.9
21 17.09 СВ 1 4000 м дым 6/3 1110 м
[Sc As op]
+28.0 +23.7 77 +38 +38 очень
душно
1004.1 1000.0
00 18.09 В 1 4000 м дым ясно +26.0 +21.5 76 +33 +33 очень
душно
1004.5 985.1
03 18.09 ЮВ 1 4000 м ясно +27.0 +21.0 70 +34 +38 очень
душно
1006.6 987.3 +24.5
06 18.09 штиль 0 10 км ясно +34.0 +23.3 54 +45 +64 опасность
перегрева
1007.8 988.8
09 18.09 ЮВ 1 10 км ясно +33.9 +25.2 61 +48 +63 опасность
перегрева
1007.2 988.6
12 18.09 штиль 0 10 км ясно +38.0 +25.6 49 +52 +54 опасность
перегрева
1003.8 985.2 +40.1
15 18.09 штиль 0 4000 м ясно +33.0 +24.6 61 +46 +46 опасность
перегрева
1004.8 985.8
18 18.09 штиль 0 4000 м ясно +31.0 +23.9 66 +43 +43 опасность
перегрева
1006.6 987.5
21 18.09 штиль 0 4000 м ясно +29.0 +24.8 78 +41 +41 опасность
перегрева
1005.4 986.2
00 19.09 СВ 1 4000 м 6/6 1110 м
[Sc]
+28.0 +23.7 77 +38 +38 очень
душно
1006.0 986.8
03 19.09 СВ 1 10 км ясно +29.0 +24.8 78 +41 +45 опасность
перегрева
1007.3 988.1 +27.1
06 19.09 штиль 0 10 км ясно +36.0 +26.4 58 +53 +72 опасность
перегрева
1008.2 989.4
09 19.09 штиль 0 10 км ясно +38.0 +25.6 49 +52 +69 опасность
перегрева
1005.9 987.3
12 19.09 штиль 0 10 км ясно +37.0 +26.0 53 +52 +54 опасность
перегрева
1004.6 985.9 +39.0
15 19.09 штиль 0 4000 м ясно +33.0 +23.0 56 +43 +43 опасность
перегрева
1005.7 986.7
18 19.09 штиль 0 4000 м ясно +30.0 +23.5 68 +41 +41 опасность
перегрева
1007.6 988.5
21 19.09 штиль 0 4000 м ясно +28.0 +23.7 77 +38 +38 очень
душно
1006.6 987.4
00 20.09 СВ 1 4000 м ясно +27.0 +23.4 81 +37 +37 очень
душно
1007.4 988.2

 

Местоположение метеостанции Дера-Исмаил-Хан (Пакистан): широта 31.82 долгота 70.92 высота над уровнем моря 173 м.

В архиве по умолчанию представлена погода в Дера-Исмаил-Хане за последнюю неделю. Архивные данные за месяц целиком и за предыдущие месяцы, начиная с января 2011 года, Вы можете получить, выбрав интересующий диапазон дат из раскрывающегося списка и нажав кнопку "Ввод!".


*Определитесь, кто Вы:
робот инопланетянин человек

Внимание! Время в таблицах - всемирное. Для получения местного времени необходимо прибавить поправку, которая равна 5 ч.

Смотрите также архив погоды в соседних городах и на ближайших метеорологических станциях:

Погода в Бхаккаре (Пакистан) (26 км)
Погода в Леяхе (Пакистан) (89 км)
Погода в Нур Пур Тал (Пакистан) (93 км)
Погода в Мианвали (Пакистан) (99 км)
Погода в Джанге (Пакистан) (146 км)
Погода в Зхобе (Пакистан) (147 км)
Погода в Банну (Пакистан) (152 км)
Погода в Кот Адду (Пакистан) (152 км)
Погода в Джаухарабаде (Пакистан) (161 км)
Погода в Саргодхе (Пакистан) (167 км)

Пояснения к столбцам:

Ветер - указаны скорость ветра в м/с - средняя за 10 мин, порывы в срок и между сроками (в фигурных скобках) и направление, откуда дует ветер: С - северный, СВ - северо-восточный, В - восточный, ЮВ - юго-восточный, Ю - южный, ЮЗ - юго-западный, З - западный, СЗ - северо-западный.
Видимость - горизонтальная дальность видимости в метрах или километрах. При видимости от 1 до 10 км при отсутствии осадков обычно наблюдается дымка, при ухудшении видимости до 1 км и менее - туман. В сухую погоду видимость может ухудшаться дымом, пылью или мглою.
Явления - указаны атмосферные явления, наблюдавшиеся в срок или в последний час перед сроком; фигурными скобками обозначены явления, наблюдавшиеся между сроками (за 1-3 часа до срока); квадратными скобками обозначены град или гололедные отложения с указанием их диаметра в мм.
Облачность - указаны через наклонную черту общая и нижняя облачность в баллах и высота нижней границы облаков в метрах; квадратными скобками обозначены формы облаков: Ci - перистые, Cs - перисто-слоистые, Cc - перисто-кучевые, Ac - высококучевые, As - высокослоистые, Sc - слоисто-кучевые, Ns - слоисто-дождевые, Cu - кучевые, Cb - кучево-дождевые. Подробнее классификацию облаков см. в Атласе облаков (PDF).
T - Температура воздуха - температура, измеренная на высоте 2 м над землей.
Td - Температура точки росы - температура, при понижении до которой содержащийся в воздухе водяной пар достигнет насыщения.
f - Относительная влажность воздуха - влажноcть воздуха, измеренная на высоте 2 м над землей.
Te - Эффективная температура - температура, которую ощущает одетый по сезону человек в тени. Характеристика душности погоды. При расчете учитывается влияние влажности воздуха и скорости ветра на теплоощущения человека.
Tes - Эффективная температура на солнце - температура, которую ощущает человек, с поправкой на солнечный нагрев. Характеристика знойности погоды. Зависит от высоты солнца над горизонтом, облачности и скорости ветра. Ночью, в пасмурную погоду, а также при ветре 12 м/с и более поправка равна нулю.
P - Атмосферное давление - приведенное к уровню моря атмосферное давление.
Po - Атмосферное давление - измеренное на уровне метеостанции атмосферное давление.
Tmin - Минимальная температура - минимум температуры воздуха на высоте 2 м над землей.
Tmax - Максимальная температура - максимум температуры воздуха на высоте 2 м над землей.
R - Количество осадков - Количество выпавших осадков за период времени, мм. При наведении курсора мыши на число - период времени, за который выпало указанное количество осадков.
R24 - Количество осадков - Количество выпавших осадков за 24 часа, мм.
S - Снежный покров - Высота снежного покрова, см. При наведении курсора мыши на число - состояние снежного покрова и степень покрытия местности в баллах.